Flag for Norway Weather past 2 weeks in Ny-Ålesund, Svalbard, Norway

Now
24 °F

Snow flurries. Overcast.


Feels Like: 24 °F
Forecast: 21 / 30 °F
Wind: 2 mph from South

Location: Ny Alesund

Current Time: Mar 5, 2015 at 8:25:21 PM

Latest Report: Mar 5, 2015 at 7:00 PM


Visibility: 4 mi

Pressure: 29.47 "Hg

Humidity: 70%

Dew point: 15 °F

Location of Ny-ÅlesundLocation

Historic Weather in Ny-Ålesund — Graph

°F

Ny-Ålesund temperature yesterday

Maximum temperature yesterday: 32 °F (at 3:00 AM)
Minimum temperature yesterday: 28 °F (at 12:00 PM)
Average temperature yesterday: 30 °F

Past Weeks' High & Low Weather Summary

 TemperatureHumidityPressure
High34 °F (Mar 3, 5:00 PM)88% (Feb 25, 11:00 PM)29.96 "Hg (Feb 25, 11:00 PM)
Low-10 °F (Feb 22, 2:00 AM)28% (Feb 28, 2:00 AM)29.15 "Hg (Feb 22, 7:00 AM)
Average12 °F65%29.43 "Hg
* Reported Feb 18 7:00 PM — Mar 5 7:00 PM, Ny-Ålesund, Weather by CustomWeather, © 2015

Note: Actual official high and low records may vary slightly from our data, if they occured in-between our weather recording intervals... More about our weather records

Advertising

Ny-Ålesund weather history for previous 24 hours

 ConditionsComfort  
Time TempWeatherWind HumidityBarometerVisibility
7:00 PM
Thu, Mar 5
24 °FSnow flurries. Overcast.2 mph70%29.47 "Hg4 mi
6:00 PM24 °FCold.3 mph74%29.47 "HgN/A
5:00 PM25 °FCold.6 mph77%29.47 "HgN/A
4:00 PM25 °FChilly.6 mph80%29.44 "HgN/A
3:00 PM25 °FChilly.6 mph81%29.47 "HgN/A
2:00 PM27 °FChilly.6 mph76%29.47 "HgN/A
1:00 PM26 °FSnow flurries. Overcast.6 mph82%29.47 "Hg4 mi
12:00 PM28 °FChilly.6 mph72%29.44 "HgN/A
11:00 AM28 °FChilly.5 mph76%29.44 "HgN/A
10:00 AM28 °FChilly.2 mph84%29.44 "HgN/A
9:00 AM27 °FChilly.1 mph82%29.44 "HgN/A
8:00 AM27 °FChilly.3 mph85%29.41 "HgN/A
7:00 AM29 °FOvercast.No wind81%29.44 "Hg4 mi
6:00 AM28 °FChilly.2 mph84%29.44 "HgN/A
5:00 AM28 °FChilly.7 mph83%29.44 "HgN/A
3:00 AM29 °FChilly.6 mph80%29.47 "HgN/A
2:00 AM28 °FChilly.1 mph84%29.47 "HgN/A
1:00 AM28 °FChilly.1 mph86%29.50 "HgN/A
12:00 AM29 °FChilly.2 mph87%29.50 "HgN/A
11:00 PM
Wed, Mar 4
30 °FChilly.1 mph87%29.50 "HgN/A
10:00 PM30 °FChilly.2 mph86%29.53 "HgN/A
9:00 PM31 °FChilly.2 mph78%29.54 "HgN/A
8:00 PM31 °FChilly.6 mph77%29.54 "HgN/A
Weather by CustomWeather, © 2015

See weather overviewHow to use our weather pages